BEIDOU-3 G1

Last updated on Fri Jul 11 2025 00:02:45 GMT+0000 (Coordinated Universal Time)

1 43683U 18085A 25191.58945567 -.00000267 00000+0 00000+0 0 9997 2 43683 2.7237 107.6324 0004605 350.1878 183.1330 1.00276024 24633
UTC large
Height (km)
Speed (km/s)
/
Latitude / Longitude
Inclination (degrees)
Orbital Period (minutes)
Azimuth
Elevation
Range (km)
Doppler Factor

Next 0 passes for location: London (51.5072 / 0.1276)

Sorry there are no passes over London.